[[{"header":{"parameterUnit":"m.s-1","parameterCategory":1,"la1":30.2991,"la2":30.254,"lo1":-89.0895,"lo2":-89.0444,"dy":0.0017,"dx":0.0017,"nx":28,"ny":28,"refTime":"2023-10-12T09:00:00:Z","depth":0,"parameterNumber":2,"parameterNumberName":"U-component_of_WINDS"},"data":[0,0,0,0,0,0,0,0,0,0,0,0,0,0,0,0,0,0,0,0,0,0,0,0,0,0,0,0,0,0,0,0,0,0,0,0,0,0,0,0,0,0,0,0,0,0,0,0,0,0,0,0,0,0,0,0,0,0,-9.4388,-9.4388,0,-9.4361,-9.4361,-9.4361,-9.4139,-9.4133,-9.4128,-9.4123,-9.4096,-9.41,-9.4105,0,0,0,0,0,0,0,0,0,0,0,0,0,-9.4249,-9.4253,-9.4388,-9.4388,-9.4387,-9.4361,-9.4361,-9.4361,-9.414,-9.4133,-9.4126,-9.412,-9.4095,-9.41,-9.4105,0,0,0,0,0,0,0,0,0,0,0,0,0,-9.4275,-9.4254,-9.4388,-9.4274,-9.4264,-9.4361,-9.4361,-9.436,-9.4141,-9.4133,-9.4125,-9.4117,-9.4093,-9.4099,-9.4106,-9.4312,0,0,-9.4126,-9.4129,0,0,0,0,0,0,0,0,-9.4274,-9.428,-9.4291,-9.4282,-9.427,-9.4245,-9.4302,-9.4344,-9.4143,-9.4188,-9.4122,-9.4113,-9.4152,-9.4154,-9.4167,-9.431,-9.4309,-9.4127,-9.4131,-9.4134,-9.4135,0,0,0,0,0,0,0,-9.4272,-9.428,-9.4377,-9.4292,-9.4279,-9.4224,-9.4219,-9.4309,-9.4217,-9.4183,-9.4167,-9.4167,-9.4145,-9.4161,-9.4164,-9.4309,-9.4127,-9.4132,-9.4137,-9.4139,-9.462,-9.4629,0,0,0,0,0,0,-9.4286,-9.428,-9.4378,-9.4377,-9.4252,-9.4234,-9.4228,-9.4261,-9.4215,-9.42,-9.4174,-9.4157,-9.4154,-9.4157,-9.4163,-9.44,-9.4134,-9.414,-9.4144,-9.4612,-9.4622,-9.4632,0,0,0,0,0,0,-9.4284,-9.4297,-9.4379,-9.4324,-9.433,-9.4245,-9.4285,-9.4265,-9.428,-9.4208,-9.419,-9.4207,-9.4147,-9.4153,-9.4276,-9.4397,-9.4143,-9.4149,-9.4601,-9.4615,-9.4627,-9.4879,0,0,0,0,0,0,-9.4281,-9.4298,-9.4375,-9.4327,-9.4334,-9.4494,-9.4292,-9.4271,-9.4292,-9.427,-9.4234,-9.422,-9.4141,-9.4268,-9.4283,-9.4401,-9.4154,-9.459,-9.4607,-9.4623,-9.4859,-9.4899,-9.4933,0,0,0,0,0,-9.4277,-9.4446,-9.438,-9.4393,-9.4429,-9.4501,-9.4505,-9.441,-9.4303,-9.438,-9.4333,-9.4221,-9.4381,-9.4282,-9.4297,-9.442,-9.4582,-9.4603,-9.4622,-9.4843,-9.4891,-9.4932,0,0,0,0,0,0,-9.451,-9.4438,-9.4363,-9.4523,-9.452,-9.4464,-9.4557,-9.4464,-9.4492,-9.4469,-9.4351,-9.4345,-9.4486,-9.4464,-9.4355,-9.4616,-9.4462,-9.4486,-9.4625,-9.467,-9.4707,-9.4709,-9.4159,0,0,0,0,0,-9.458,-9.4645,-9.4578,-9.4726,-9.4728,-9.4644,-9.4672,-9.4599,-9.4591,-9.4589,-9.4551,-9.4549,-9.4598,-9.4633,-9.4674,-9.4855,-9.4845,-9.4947,-9.4984,-9.5014,-9.5036,-9.5131,-9.5176,-9.4697,-9.4697,-9.4697,0,0,-9.4725,-9.4694,-9.4742,-9.4772,-9.4761,-9.4831,-9.4644,-9.4726,-9.4777,-9.4601,-9.4715,-9.4688,-9.4677,-9.4831,-9.4896,-9.4817,-9.5166,-9.5039,-9.5064,-9.507,-9.5156,-9.5202,-9.5242,-9.4711,-9.4708,-9.4706,0,0,-9.5026,-9.5009,-9.513,-9.5123,-9.5109,-9.5052,-9.5081,-9.504,-9.5015,-9.5127,-9.4997,-9.5056,-9.5144,-9.5141,-9.5152,-9.5453,-9.5352,-9.547,-9.5662,-9.5756,-9.5794,-9.5827,-9.5935,-9.5975,-9.5492,-9.5493,-9.5493,0,-9.5208,-9.5308,-9.5204,-9.5295,-9.5312,-9.5156,-9.5278,-9.5276,-9.5278,-9.5293,-9.5205,-9.5311,-9.5293,-9.5444,-9.5518,-9.5531,-9.5562,-9.5473,-9.5797,-9.5829,-9.5858,-9.596,-9.6001,-9.5507,-9.5506,-9.5504,-9.5503,0,-9.5534,-9.5606,-9.5705,-9.571,-9.5738,-9.5844,-9.5756,-9.5797,-9.5723,-9.5676,-9.5793,-9.5765,-9.5799,-9.5829,-9.5757,-9.5971,-9.5922,-9.5818,-9.566,-9.592,-9.6014,-9.6052,-9.5528,-9.5523,-9.5519,-9.5515,0,0,-9.598,-9.5926,-9.5965,-9.5965,-9.5939,-9.5992,-9.6092,-9.6124,-9.6162,-9.6169,-9.625,-9.6328,-9.6231,-9.6243,-9.6169,-9.6252,-9.6494,-9.6136,-9.6134,-9.6204,-9.6728,-9.6808,-9.6854,-9.6426,-9.6433,-9.6439,-9.6729,0,-9.627,-9.6436,-9.6345,-9.6524,-9.659,-9.6443,-9.653,-9.6524,-9.6483,-9.6532,-9.6486,-9.6544,-9.6412,-9.6418,-9.6493,-9.6449,-9.6597,-9.6426,-9.6501,-9.6505,-9.6508,-9.6903,-9.6987,-9.7262,-9.6765,-9.6771,-9.6776,0,-9.6629,-9.6651,-9.6837,-9.6799,-9.6823,-9.6903,-9.6925,-9.6975,-9.6965,-9.6929,-9.6944,-9.6851,-9.6946,-9.6791,-9.6922,-9.6808,-9.6833,-9.6816,-9.6824,-9.6827,-9.6656,-9.6918,-9.7348,-9.739,-9.6832,-9.6828,-9.6824,0,-9.6937,-9.7013,-9.7134,-9.7139,-9.7097,-9.7157,-9.7143,-9.7124,-9.715,-9.7171,-9.7186,-9.7218,-9.7236,-9.7263,-9.7181,-9.7075,-9.7323,-9.7161,-9.7297,-9.7299,-9.7355,-9.7353,-9.7796,-9.7372,-9.7372,-9.7371,-9.737,0,-9.727,-9.739,-9.7272,-9.7347,-9.7476,-9.7371,-9.7503,-9.7472,-9.7458,-9.7525,-9.74,-9.7466,-9.7353,-9.7408,-9.7344,-9.7463,-9.7471,-9.7446,-9.7428,-9.7457,-9.7461,-9.7472,-9.7451,-9.7382,-9.7379,-9.7377,-9.7375,0,-9.7636,-9.7561,-9.7684,-9.7635,-9.7625,-9.7724,-9.7681,-9.7749,-9.7699,-9.7785,-9.7799,-9.7722,-9.778,-9.7701,-9.7751,-9.7708,-9.7871,-9.7823,-9.7874,-9.786,-9.8001,-9.7989,-9.8467,-9.8524,-9.8064,-9.8069,-9.8073,0,-9.7853,-9.7942,-9.7903,-9.7938,-9.7931,-9.799,-9.8015,-9.7916,-9.7947,-9.7944,-9.8012,-9.8059,-9.8091,-9.8191,-9.814,-9.8177,-9.813,-9.8295,-9.8135,-9.8162,-9.8133,-9.8129,-9.8138,-9.8328,-9.8334,-9.8338,-9.8342,0,-9.8248,-9.8206,-9.8248,-9.8278,-9.8312,-9.833,-9.8339,-9.8376,-9.8271,-9.8313,-9.837,-9.8396,-9.8447,-9.8496,-9.852,-9.8505,-9.8408,-9.8393,-9.8426,-9.8457,-9.8483,-9.8471,-9.7964,-9.8382,-9.8378,-9.8375,-9.8373,-9.8371,-9.8546,-9.8618,-9.8602,-9.8652,-9.8649,-9.866,-9.8721,-9.868,-9.8726,-9.8759,-9.8697,-9.8771,-9.8759,-9.8782,-9.8778,-9.8835,-9.8763,-9.8812,-9.8824,-9.8837,-9.8859,-9.8475,-9.8839,-9.8838,-9.8836,-9.8835,-9.8834,0,-9.8933,-9.8916,-9.8964,-9.898,-9.9021,-9.8924,-9.893,-9.897,-9.9036,-9.9033,-9.9068,-9.9134,-9.9181,-9.9135,-9.9173,-9.9227,-9.9183,-9.924,-9.9235,-9.9234,-9.8921,-9.8888,-9.9275,-9.9275,-9.9275,-9.9275,-9.9275,-9.9275,-9.914,-9.9257,-9.9215,-9.9329,-9.931,-9.9381,-9.9392,-9.9403,-9.94,-9.948,-9.9518,-9.9487,-9.9467,-9.9503,-9.9542,-9.9527,-9.9547,-9.9621,-9.959,-9.9299,-9.9256,-9.9214,-9.9183,-9.9626,-9.9626,-9.9898,-9.99,-9.9902]},{"header":{"parameterUnit":"m.s-1","parameterCategory":1,"la1":30.2991,"la2":30.254,"lo1":-89.0895,"lo2":-89.0444,"dy":0.0017,"dx":0.0017,"nx":28,"ny":28,"refTime":"2023-10-12T09:00:00:Z","depth":0,"parameterNumber":3,"parameterNumberName":"V-component_of_WINDS"},"data":[0,0,0,0,0,0,0,0,0,0,0,0,0,0,0,0,0,0,0,0,0,0,0,0,0,0,0,0,0,0,0,0,0,0,0,0,0,0,0,0,0,0,0,0,0,0,0,0,0,0,0,0,0,0,0,0,0,0,-7.3407,-7.3407,0,-7.3438,-7.3438,-7.3439,-7.332,-7.3317,-7.3313,-7.331,-7.334,-7.3344,-7.3348,0,0,0,0,0,0,0,0,0,0,0,0,0,-7.324,-7.3244,-7.3407,-7.3407,-7.3407,-7.3438,-7.3438,-7.3439,-7.3321,-7.3317,-7.3312,-7.3308,-7.3338,-7.3343,-7.3348,0,0,0,0,0,0,0,0,0,0,0,0,0,-7.3296,-7.3245,-7.3406,-7.3352,-7.3348,-7.3438,-7.3438,-7.3439,-7.3322,-7.3316,-7.3311,-7.3306,-7.3337,-7.3343,-7.3349,-7.3492,0,0,-7.3367,-7.337,0,0,0,0,0,0,0,0,-7.3293,-7.3302,-7.336,-7.3356,-7.3351,-7.337,-7.339,-7.3457,-7.3323,-7.3332,-7.331,-7.3304,-7.3354,-7.3358,-7.3376,-7.3493,-7.3495,-7.3368,-7.3372,-7.3374,-7.3376,0,0,0,0,0,0,0,-7.3289,-7.33,-7.3419,-7.3361,-7.3356,-7.3325,-7.3327,-7.3402,-7.3372,-7.333,-7.3322,-7.3327,-7.335,-7.337,-7.3375,-7.3495,-7.3368,-7.3373,-7.3377,-7.3379,-7.3729,-7.3735,0,0,0,0,0,0,-7.3293,-7.3298,-7.3418,-7.342,-7.3309,-7.3332,-7.3335,-7.3369,-7.3371,-7.3366,-7.3332,-7.3322,-7.3362,-7.3368,-7.3376,-7.3542,-7.3374,-7.338,-7.3383,-7.3724,-7.3731,-7.3737,0,0,0,0,0,0,-7.329,-7.3305,-7.3417,-7.3357,-7.3368,-7.3341,-7.338,-7.3373,-7.3392,-7.3372,-7.3365,-7.3358,-7.3358,-7.3367,-7.3464,-7.3542,-7.3383,-7.3388,-7.3717,-7.3726,-7.3734,-7.3878,0,0,0,0,0,0,-7.3286,-7.3305,-7.336,-7.3359,-7.3372,-7.3506,-7.3385,-7.3377,-7.3403,-7.339,-7.3394,-7.339,-7.3355,-7.3455,-7.347,-7.3547,-7.3393,-7.371,-7.3721,-7.3731,-7.3866,-7.389,-7.3911,0,0,0,0,0,-7.328,-7.3399,-7.3363,-7.3378,-7.3441,-7.351,-7.3518,-7.3476,-7.341,-7.3464,-7.3451,-7.339,-7.3531,-7.3466,-7.3481,-7.3562,-7.3705,-7.3718,-7.373,-7.3856,-7.3885,-7.391,0,0,0,0,0,0,-7.341,-7.3398,-7.3358,-7.3481,-7.3497,-7.349,-7.3558,-7.3508,-7.3544,-7.353,-7.3475,-7.3477,-7.3583,-7.3582,-7.351,-7.37,-7.3606,-7.3623,-7.3696,-7.3724,-7.3746,-7.3744,-7.3398,0,0,0,0,0,-7.3453,-7.3511,-7.3497,-7.3606,-7.3617,-7.3586,-7.3615,-7.3581,-7.3596,-7.3602,-7.3595,-7.3612,-7.3659,-7.3691,-7.3734,-7.3865,-7.3863,-7.3928,-7.395,-7.3969,-7.3983,-7.405,-7.4079,-7.3778,-7.3778,-7.3778,0,0,-7.3542,-7.3542,-7.3583,-7.3632,-7.3641,-7.3701,-7.3593,-7.3662,-7.3705,-7.3612,-7.3702,-7.3698,-7.3712,-7.3826,-7.3876,-7.3828,-7.4066,-7.3985,-7.4,-7.4004,-7.4066,-7.4095,-7.412,-7.3787,-7.3785,-7.3784,0,0,-7.3734,-7.3742,-7.3833,-7.3844,-7.3859,-7.3837,-7.3859,-7.3859,-7.3853,-7.3943,-7.3874,-7.3924,-7.4008,-7.402,-7.4037,-7.4233,-7.4178,-7.4249,-7.4366,-7.4432,-7.4455,-7.4476,-7.4545,-7.457,-7.4263,-7.4264,-7.4264,0,-7.3843,-7.3932,-7.3885,-7.3959,-7.3982,-7.39,-7.399,-7.4003,-7.4032,-7.4049,-7.3995,-7.4098,-7.4101,-7.4216,-7.4264,-7.4281,-7.4303,-7.4248,-7.4456,-7.4476,-7.4495,-7.456,-7.4586,-7.4272,-7.4271,-7.427,-7.4269,0,-7.4064,-7.4127,-7.4198,-7.4228,-7.4259,-7.434,-7.4304,-7.4341,-7.4304,-7.4288,-7.4379,-7.4381,-7.4422,-7.4446,-7.4411,-7.4556,-7.4526,-7.4466,-7.4371,-7.4533,-7.4593,-7.4617,-7.4284,-7.4281,-7.4279,-7.4277,0,0,-7.434,-7.4342,-7.4369,-7.438,-7.439,-7.4437,-7.4514,-7.4554,-7.4586,-7.4608,-7.467,-7.4742,-7.4686,-7.4706,-7.4671,-7.4729,-7.4882,-7.4661,-7.466,-7.4701,-7.504,-7.5085,-7.5115,-7.4845,-7.485,-7.4854,-7.5039,0,-7.4529,-7.4662,-7.4621,-7.4754,-7.481,-7.4732,-7.4799,-7.4812,-7.4798,-7.4843,-7.4827,-7.4879,-7.4801,-7.4812,-7.4867,-7.4852,-7.4949,-7.4838,-7.4902,-7.4904,-7.49,-7.5146,-7.5194,-7.5369,-7.5062,-7.5066,-7.5069,0,-7.4767,-7.4798,-7.4937,-7.4936,-7.4958,-7.5019,-7.5051,-7.5096,-7.5107,-7.5093,-7.5115,-7.5067,-7.5141,-7.5046,-7.5146,-7.5072,-7.5095,-7.5092,-7.5097,-7.5101,-7.4996,-7.5156,-7.5424,-7.545,-7.5105,-7.5102,-7.51,0,-7.4953,-7.503,-7.5122,-7.5135,-7.5136,-7.518,-7.5182,-7.5189,-7.5215,-7.5244,-7.526,-7.5297,-7.5317,-7.5345,-7.5308,-7.5243,-7.5413,-7.5316,-7.5403,-7.5404,-7.5442,-7.544,-7.5717,-7.5458,-7.5458,-7.5457,-7.5457,0,-7.5168,-7.5256,-7.5206,-7.5263,-7.5358,-7.5309,-7.5405,-7.5398,-7.5404,-7.5457,-7.5392,-7.5443,-7.5391,-7.5437,-7.5409,-7.5495,-7.5505,-7.5495,-7.5486,-7.55,-7.5502,-7.5514,-7.5501,-7.5464,-7.5463,-7.5462,-7.546,0,-7.5392,-7.5362,-7.5458,-7.5451,-7.5451,-7.5522,-7.5514,-7.5566,-7.5547,-7.5615,-7.5628,-7.5599,-7.565,-7.5615,-7.5666,-7.5646,-7.576,-7.5734,-7.5756,-7.5749,-7.5837,-7.5829,-7.6132,-7.6168,-7.5888,-7.589,-7.5893,0,-7.5531,-7.5596,-7.5596,-7.5627,-7.5634,-7.5685,-7.5711,-7.5665,-7.5695,-7.5712,-7.5762,-7.5807,-7.584,-7.5924,-7.5907,-7.5945,-7.5919,-7.6023,-7.5925,-7.5937,-7.592,-7.5916,-7.5922,-7.6042,-7.6046,-7.6048,-7.6051,0,-7.578,-7.5761,-7.5802,-7.5838,-7.5871,-7.5897,-7.5917,-7.5946,-7.59,-7.5936,-7.5987,-7.6013,-7.6065,-7.611,-7.6141,-7.6141,-7.6089,-7.6082,-7.6103,-7.6119,-7.6128,-7.6123,-7.5809,-7.6075,-7.6072,-7.6071,-7.6069,-7.6068,-7.5964,-7.6018,-7.6026,-7.6074,-7.6084,-7.6104,-7.6152,-7.6139,-7.6181,-7.6219,-7.6189,-7.625,-7.6257,-7.6294,-7.6301,-7.6347,-7.6305,-7.6337,-7.6345,-7.6353,-7.6365,-7.6122,-7.6353,-7.6352,-7.6351,-7.6351,-7.635,0,-7.6209,-7.621,-7.6254,-7.6284,-7.6321,-7.6268,-7.6287,-7.6321,-7.6375,-7.6388,-7.6422,-7.648,-7.6522,-7.6508,-7.6546,-7.6585,-7.6562,-7.6597,-7.6593,-7.6594,-7.6402,-7.6378,-7.6615,-7.6615,-7.6615,-7.6615,-7.6615,-7.6615,-7.634,-7.6429,-7.6411,-7.6503,-7.6503,-7.6562,-7.6577,-7.6595,-7.6604,-7.6672,-7.6707,-7.6698,-7.6699,-7.6736,-7.6773,-7.6767,-7.6784,-7.6828,-7.6814,-7.6634,-7.6608,-7.6583,-7.6561,-7.6832,-7.6832,-7.7002,-7.7004,-7.7005]}]]